Weather in Atlanta

United States     33°06′52″N   94°10′05″W
temp.,
°C
wind,
m/s
gust,
m/s
humid.,
%
clouds,
%
prec.,
mm/h
press.,
hPa
HPBL,
m
16 may, sun
sun1601:00+18sse31278100 0.0 1018425
04:00+16s2129713 0.0 1018383
07:00+16sse21098100 0.0 1019315
10:00+24sse4771100 0.0 10191019
13:00+28sse574899 0.1 10162048
16:00+25s3764100 0.2 1015833
19:00+19ssw2799100 4.8 1016293
22:00+19sse31199100 0.5 1015609
17 may, mon
mon1701:00+19sse4139966 0.6 1014721
04:00+19sse41298100 0.9 1013818
07:00+19sse31099100 1.8 1014756
10:00+20se31099100 0.8 1014651
13:00+21sse4894100 0.9 1014747
16:00+21sse379698 1.7 1013543
19:00+24s25908 2.9 1012346
22:00+21se289818 0.8 1013201
18 may, tue
tue1801:00+20sse31299100 0.9 1013446
04:00+20sse31098100 1.9 1012581
07:00+20sse31099100 6.6 1013662
10:00+24s41087100 0.1 1014949
13:00+26sse467772 0.8 1013936
16:00+27sse478356 2.4 1011908
19:00+25sse51086100 3.8 1010779
22:00+23se61384100 0.0 1011967
19 may, wed
wed1901:00+23sse51486100 0.0 10121006
04:00+21sse2797100 3.6 1013382
07:00+20w1299100 15.8 1014151
10:00+20se2494100 25.4 1015288
13:00+18se4896100 26.4 1017411
16:00+19se3690100 0.4 1016539
19:00+19ese4891100 0.4 1014393
22:00+17ese259899 0.0 1017198
20 may, thu
thu2001:00+17se3149994 0.0 1016565
04:00+19ese3139687 0.0 1016559
07:00+19e3119491 0.0 1017561
10:00+24se587175 0.0 1018858
13:00+28se5753100 0.0 10181621
16:00+29se5752100 0.0 10171830
19:00+25se4972100 0.1 1017655
22:00+22ese4128897 0.1 1019595